Wind_Speed
17 15 14 12 13 13 13 13 14 15 13 12 9 7 6 7 6 6 7 10 11 10 10 10 7 8 5 3 2 4 4 3 6 7 3 3 4 2 2 4 1 4 3 2 17
18 15 14 13 13 12 12 11 12 12 10 10 9 7 5 4 5 10 9 10 11 11 11 14 5 6 3 2 2 4 4 9 5 5 5 6 4 7 4 2 2 2 1 4 22
19 17 16 14 13 13 13 12 11 11 10 9 8 6 5 3 1 7 14 10 11 14 10 11 12 3 4 1 1 2 5 5 4 3 5 7 3 2 6 3 6 6 5 8 14
18 18 17 15 14 13 13 13 12 10 9 8 6 5 4 7 6 1 12 13 13 13 13 11 4 4 4 5 1 5 2 3 3 4 4 7 6 3 5 3 4 5 5 11 11
18 19 17 16 14 13 13 14 12 11 9 8 7 6 8 2 7 3 10 12 13 14 10 5 5 5 8 6 4 3 3 2 4 6 4 5 2 2 6 4 3 3 7 10 13
20 20 18 16 15 13 12 13 11 9 8 8 7 5 4 4 3 6 10 11 11 12 8 7 7 4 6 5 4 4 4 4 2 3 3 3 1 1 1 4 2 4 5 6 11
19 21 18 17 15 13 11 11 11 9 7 7 7 6 4 8 3 7 9 7 11 9 7 4 9 4 5 6 2 5 5 2 1 1 2 1 4 7 2 3 4 6 4 4 10
22 20 18 17 16 14 13 11 10 9 7 7 7 6 4 2 5 7 9 8 8 8 9 8 9 8 4 5 6 5 5 3 2 3 1 3 8 3 4 1 3 6 5 6 6
21 21 20 19 17 15 13 10 9 6 6 8 5 5 3 4 4 8 10 10 8 10 9 10 5 4 4 6 4 6 4 3 2 1 2 2 6 2 1 5 3 4 6 6 7
21 20 20 19 17 16 13 11 9 7 8 5 2 2 1 5 6 8 8 13 5 5 5 7 5 4 3 4 6 6 5 2 3 2 1 3 8 6 6 4 8 7 7 7 7
19 20 21 18 17 17 17 11 5 2 2 5 3 2 4 4 7 3 7 7 3 8 4 2 5 7 9 5 4 6 5 4 1 1 2 3 5 11 7 5 8 8 7 7 8
18 19 17 18 19 18 18 4 5 4 4 2 2 3 4 4 4 1 8 5 4 5 3 5 5 6 8 7 6 4 5 3 2 3 2 3 8 10 6 4 3 6 7 6 7
17 17 17 18 17 14 12 5 7 6 5 3 3 4 4 5 3 8 6 3 5 6 4 6 2 10 7 4 7 2 6 5 3 1 3 4 7 6 3 3 6 6 3 5 5
13 21 22 21 12 12 6 11 9 5 4 5 5 5 4 5 3 1 5 5 3 6 7 3 2 8 7 5 5 5 5 6 6 4 3 3 4 5 3 3 6 7 7 6 6
8 23 26 25 14 9 8 13 8 2 2 4 4 3 2 6 4 0 1 4 9 6 6 5 7 8 5 5 6 4 6 6 4 4 4 3 2 6 3 4 5 7 6 7 6
7 11 20 14 10 11 19 17 5 5 7 4 3 7 7 2 2 3 3 5 4 5 4 3 1 3 6 4 3 10 7 7 4 3 1 3 4 6 3 4 3 2 4 5 6
4 3 11 13 6 15 18 6 3 5 2 6 5 5 3 5 3 4 7 5 7 6 4 2 1 1 4 8 5 3 6 2 2 2 5 2 2 7 1 4 5 6 4 4 4
9 6 3 8 12 16 7 4 5 7 6 2 5 8 7 7 1 4 7 8 5 4 5 7 4 8 3 6 9 7 6 5 7 4 2 1 6 4 1 2 5 2 2 5 7
6 3 2 2 6 12 5 12 11 5 9 8 6 5 4 3 5 5 8 12 10 9 7 6 4 1 2 2 6 6 5 5 7 3 3 4 5 4 4 5 4 4 6 7 6
2 0 3 1 2 4 7 10 4 3 5 5 6 6 8 8 6 6 9 5 6 9 1 7 4 1 1 2 2 5 8 4 2 4 3 3 4 5 8 10 6 5 7 6 6
1 1 2 4 3 3 3 4 4 3 2 4 4 6 6 8 7 6 9 1 5 8 3 5 4 0 4 6 8 3 3 4 5 4 6 3 6 6 16 13 10 8 6 6 6
1 2 4 8 2 1 3 6 5 5 2 2 4 5 7 8 6 7 12 4 4 10 10 5 5 4 7 2 1 0 6 6 5 5 1 3 5 1 13 10 9 8 7 6 6
2 1 4 3 1 2 1 3 4 8 5 5 3 2 2 6 5 5 6 2 4 7 10 8 3 3 4 3 2 5 5 4 5 4 7 6 5 4 8 7 6 8 7 6 6
2 2 3 1 1 2 2 1 2 2 3 4 4 4 4 3 4 5 3 1 3 2 1 4 4 9 13 4 7 6 6 5 5 4 5 7 6 4 7 9 7 6 6 6 6
2 1 1 2 3 3 6 1 3 4 1 5 2 3 5 4 3 3 3 3 4 4 2 4 6 4 3 3 4 5 9 11 11 15 9 13 11 21 17 11 10 7 6 6 6
2 3 0 2 2 4 6 7 6 3 5 8 5 11 7 4 3 4 5 2 2 4 2 2 3 3 4 2 4 2 5 15 19 6 1 6 5 5 10 6 7 8 8 7 6
2 1 1 1 2 3 3 4 2 5 3 0 8 8 10 12 13 13 10 8 5 3 3 2 5 3 4 5 4 5 12 11 7 4 12 10 7 6 6 11 13 11 11 10 7
Wind_Direction
209 207 207 208 204 203 197 196 203 201 193 193 198 197 216 236 251 227 225 209 230 235 181 163 164 144 122 94 91 172 75 157 191 157 204 151 163 165 176 117 219 191 159 143 156
207 202 205 207 203 199 198 198 200 200 189 195 196 201 215 237 227 241 227 212 218 192 174 163 159 132 70 95 7 89 111 204 184 184 174 176 184 164 133 120 227 191 172 151 160
205 199 204 205 201 196 191 199 195 202 186 186 188 190 189 200 199 239 215 207 196 191 187 181 154 109 91 106 5 119 166 177 185 190 141 156 151 182 133 213 221 206 177 165 168
204 198 202 199 201 193 192 191 192 195 185 177 176 180 175 167 195 254 174 179 189 182 159 146 118 104 118 141 89 95 78 160 145 123 132 154 124 197 191 206 114 247 167 166 177
207 200 200 194 198 195 189 189 188 189 179 171 170 166 136 163 255 181 172 170 180 168 169 134 131 145 140 137 108 107 150 113 97 86 76 120 137 192 248 253 251 82 165 180 188
204 201 195 191 193 192 192 184 189 187 178 171 160 169 131 218 207 165 172 173 183 164 154 149 172 163 105 134 129 129 98 109 82 113 89 146 257 17 248 357 211 188 201 198 197
197 197 196 194 193 189 189 181 186 186 178 163 156 168 114 232 210 162 164 181 175 169 137 150 147 90 135 111 143 114 87 59 36 89 72 169 277 238 252 15 314 247 263 249 226
190 192 197 196 188 183 184 181 182 177 175 157 154 159 215 199 176 167 150 146 152 144 130 127 129 100 75 117 32 76 58 120 293 125 350 127 258 295 19 101 271 285 274 256 252
188 195 200 191 183 178 179 178 164 160 172 144 147 167 220 142 175 167 167 149 130 112 102 116 71 91 68 99 57 18 166 185 274 164 121 123 260 307 21 34 312 302 304 281 279
190 197 193 187 179 173 166 155 143 144 127 105 94 123 161 189 159 163 155 145 119 118 70 56 57 84 56 98 190 168 133 210 225 256 89 140 262 279 279 294 277 290 291 283 284
189 191 188 179 177 167 155 136 92 86 199 196 176 138 124 124 118 160 151 109 85 57 133 28 105 187 184 151 119 132 119 149 205 323 200 230 264 277 278 264 280 289 297 297 293
184 185 178 178 171 165 173 185 190 158 160 198 84 93 125 148 101 219 163 118 130 128 129 54 200 194 120 123 116 115 120 172 90 17 144 1 283 267 280 283 316 301 316 316 337
179 173 175 169 159 168 185 201 169 150 111 211 195 162 175 140 171 195 144 130 113 127 176 151 204 139 118 133 126 126 148 175 156 94 63 344 307 321 10 358 13 26 21 20 360
118 171 177 162 160 179 191 197 169 170 99 200 206 233 127 142 178 152 185 138 93 156 141 174 134 136 122 172 133 154 188 131 128 99 214 22 269 302 348 40 36 27 33 24 12
41 165 172 170 150 161 169 177 160 72 143 178 158 155 133 153 148 263 37 41 147 148 130 213 160 139 140 189 160 175 122 122 104 96 90 330 76 268 335 75 29 18 28 35 24
36 165 177 166 144 164 154 150 128 71 232 170 131 165 129 121 87 104 116 37 133 108 47 115 11 140 164 84 85 149 85 52 61 89 356 249 166 281 212 148 97 15 32 30 36
19 23 155 156 133 150 151 123 94 181 167 189 176 160 122 141 109 126 162 168 156 121 160 83 174 285 133 85 30 92 103 45 5 3 217 325 135 241 233 56 143 143 88 45 47
351 24 107 171 162 155 153 126 176 176 183 142 119 121 172 144 168 131 129 186 248 98 132 148 201 173 195 170 165 184 163 153 189 193 218 88 222 245 333 106 123 126 75 74 66
342 15 356 11 186 173 158 188 206 179 142 142 91 115 170 231 136 144 191 198 193 193 146 141 211 50 99 132 153 190 196 147 106 24 67 205 272 290 112 102 138 113 99 78 64
117 309 170 20 36 96 183 206 216 191 125 158 149 162 171 182 147 178 166 192 200 185 225 199 111 359 140 124 48 164 156 81 9 129 231 260 270 217 173 176 184 156 117 95 77
99 84 325 71 35 52 190 200 191 202 135 162 135 130 170 170 160 192 202 240 195 171 156 140 104 132 131 216 163 123 181 65 118 140 164 161 250 217 179 166 164 165 134 113 97
82 140 331 130 133 191 175 174 178 161 173 160 108 126 160 163 146 192 203 227 176 150 168 191 119 157 195 278 246 203 180 155 146 219 253 147 266 345 151 165 160 157 139 118 113
78 54 337 165 180 186 330 264 177 154 171 164 123 100 154 142 157 188 178 105 171 161 162 181 189 82 9 343 344 201 192 145 112 100 195 144 252 18 141 157 175 151 144 135 128
98 118 331 310 127 157 118 175 128 37 109 72 96 96 106 113 27 152 125 70 107 156 32 100 145 184 208 188 132 183 179 178 146 171 162 224 147 165 188 169 177 166 156 147 142
43 82 124 218 173 170 152 117 190 136 175 102 33 109 132 127 129 134 101 116 45 354 84 155 180 126 41 93 125 169 175 173 195 214 185 223 184 185 189 187 185 171 156 150 162
135 133 157 160 296 136 179 200 183 322 151 170 144 169 135 135 124 143 134 93 109 38 93 17 155 119 161 116 67 175 205 195 210 196 163 149 216 191 166 130 156 171 165 171 177
167 130 143 141 186 163 195 154 155 119 332 251 158 161 191 197 181 174 167 150 147 98 45 83 129 137 210 146 96 294 217 197 191 181 189 198 180 139 144 172 183 178 176 179 173
Height
763 765 766 768 773 772 775 777 781 783 783 784 787 788 792 794 793 795 794 792 795 797 796 797 800 800 802 807 810 812 835 846 841 842 830 834 832 833 830 833 834 833 834 835 835
761 761 765 768 769 770 772 775 778 780 780 783 786 789 789 791 792 792 788 789 792 795 795 796 801 801 808 809 812 817 836 834 826 827 829 831 828 829 832 834 834 833 834 835 835
758 759 764 767 768 769 770 773 775 778 780 782 783 786 788 791 794 784 783 787 789 793 795 795 798 801 808 810 814 818 828 823 820 821 823 829 828 829 831 835 831 832 831 834 836
754 757 762 766 766 767 770 774 776 778 779 779 782 784 787 791 801 781 782 784 790 792 793 794 797 806 812 816 813 819 820 821 820 820 823 827 828 830 830 825 824 827 826 830 834
752 755 758 761 763 766 770 771 775 778 778 779 782 784 786 791 787 781 782 785 789 789 791 793 798 804 813 814 814 816 820 821 821 823 824 825 827 827 828 824 824 826 826 827 830
749 753 755 757 760 765 768 768 773 776 777 779 780 782 785 793 783 780 782 785 787 789 790 791 796 798 809 814 815 817 821 823 823 824 823 826 829 826 823 824 824 825 827 827 827
745 749 752 754 757 761 764 766 774 774 776 777 777 780 783 785 780 780 782 784 786 787 788 790 793 796 805 812 815 820 826 825 827 825 828 827 830 829 823 823 824 826 826 828 827
743 747 750 753 756 760 763 767 769 774 776 776 777 781 782 779 780 781 781 785 787 787 787 789 793 798 805 812 822 827 834 841 830 829 830 828 841 823 826 822 823 826 827 827 826
739 746 751 753 756 758 764 768 769 769 774 775 778 780 781 777 781 780 783 784 786 786 788 791 793 807 810 822 835 842 844 840 832 832 833 832 834 825 825 827 825 826 828 825 824
738 742 747 752 754 758 764 767 768 772 773 774 777 781 777 778 780 781 782 785 786 789 791 795 806 818 825 827 842 840 839 841 837 836 834 838 835 829 828 827 827 826 825 825 823
737 742 747 749 753 757 762 766 773 777 774 771 772 774 773 775 777 781 781 783 786 791 804 805 814 824 817 819 820 833 833 835 835 836 836 839 841 831 825 827 826 824 823 822 822
735 740 741 748 753 755 760 761 760 759 771 769 769 772 773 774 778 781 781 787 792 804 807 814 818 812 818 821 826 829 833 837 836 839 837 842 836 829 824 824 825 824 824 821 822
735 739 742 747 750 755 757 757 756 757 766 771 769 770 772 773 776 780 780 785 795 804 808 812 806 812 814 822 826 831 832 838 833 840 844 843 839 833 825 825 827 827 825 825 824
733 735 740 746 753 752 755 756 757 758 774 774 773 767 770 772 779 779 780 784 794 805 807 806 811 811 819 825 824 832 829 833 839 844 852 849 855 837 834 826 831 830 828 827 826
732 734 739 743 742 747 749 753 755 757 792 764 771 768 768 772 778 780 779 781 794 799 803 808 813 813 816 814 819 824 831 835 842 855 852 852 858 836 835 826 831 834 831 828 827
732 734 737 741 742 745 748 752 756 781 795 768 767 769 772 775 778 778 780 784 790 796 803 805 806 806 808 818 815 830 835 847 859 861 863 856 857 844 833 824 830 834 833 831 829
730 734 734 737 741 744 747 750 775 784 754 768 766 768 769 777 780 777 785 790 794 807 811 808 808 808 808 819 822 822 833 860 863 873 862 868 862 839 826 826 831 833 831 831 831
730 730 734 738 740 742 745 754 780 751 752 759 763 768 768 771 781 781 787 787 787 790 809 813 819 810 806 807 816 827 822 842 859 870 857 865 854 833 833 831 832 832 831 832 831
732 734 735 734 736 740 743 749 735 739 741 755 758 767 772 770 774 777 784 778 779 786 787 803 804 803 802 802 802 820 826 826 863 930 881 854 842 833 834 836 834 831 832 834 834
736 739 739 736 734 737 741 742 740 738 737 740 746 754 765 772 771 777 783 771 773 775 774 783 801 808 806 803 807 807 817 831 853 875 872 848 843 830 836 835 833 832 833 834 834
738 740 739 734 736 737 738 740 737 735 735 737 743 754 759 763 765 771 770 767 765 774 773 781 788 812 807 806 806 812 814 823 824 839 861 872 834 818 813 821 829 830 830 832 834
738 739 740 736 742 747 743 734 730 734 737 737 737 744 750 757 763 767 764 761 763 766 774 776 792 813 804 800 802 799 803 806 820 840 859 849 826 811 813 823 825 826 829 832 834
742 743 738 737 736 740 742 733 729 731 735 737 736 739 746 750 759 758 760 766 766 765 766 773 792 835 812 805 806 802 803 803 812 825 846 835 821 821 820 826 825 826 829 831 833
744 744 743 738 739 740 740 740 735 733 735 738 740 741 748 756 759 763 766 768 765 765 765 764 782 780 777 776 791 798 799 802 796 817 817 813 816 819 826 823 824 825 827 830 833
745 745 747 742 739 739 737 743 738 735 737 739 748 745 747 757 761 761 762 768 769 769 768 767 780 782 792 786 782 786 791 800 795 783 796 783 801 800 811 815 819 823 828 830 832
746 748 749 750 748 741 739 743 739 741 735 739 744 749 753 756 756 762 765 768 767 771 770 775 788 784 798 794 792 784 789 786 778 789 792 799 795 791 801 813 820 821 826 828 831
745 745 746 746 747 740 739 741 739 738 740 736 739 746 750 746 752 754 763 769 774 778 779 780 784 789 783 797 796 788 779 787 783 789 779 790 786 797 804 807 811 815 819 823 826